Home > Weather > Nagoya > Past weeks

Flag for Japan Past Weather in Nagoya, Japan — Yesterday and Last 2 Weeks

Now
77 °F

Passing clouds.


Feels Like: 78 °F
Forecast: 73 / 92 °F
Wind: 5 mph from Southeast

Location: Nagoya Airport

Current Time: Jul 30, 2016 at 5:00:20 AM

Latest Report: Jul 30, 2016 at 4:00 AM


Visibility: N/A

Pressure: 29.92 "Hg

Humidity: 83%

Dew Point: 72 °F

Location of NagoyaLocation

Past Weather in Nagoya — Graph

°F

Nagoya Temperature Yesterday

Maximum temperature yesterday: 84 °F (at 4:00 PM)
Minimum temperature yesterday: 75 °F (at 3:30 AM)
Average temperature yesterday: 79 °F

High & Low Weather Summary for the Past Weeks

 TemperatureHumidityPressure
High90 °F (Jul 18, 3:00 PM)94% (Jul 26, 2:30 PM)29.98 "Hg (Jul 26, 2:30 PM)
Low72 °F (Jul 16, 1:30 AM)36% (Jul 20, 4:00 PM)29.45 "Hg (Jul 15, 4:00 AM)
Average78 °F75%29.82 "Hg
* Reported Jul 15 4:00 AM — Jul 30 4:00 AM, Nagoya, Weather by CustomWeather, © 2016

Note: Actual official high and low records may vary slightly from our data, if they occured in-between our weather recording intervals... More about our weather records

Advertising

Nagoya Weather History for the Previous 24 Hours

Scroll right to see more
 ConditionsComfort  
Time TempWeatherWind HumidityBarometerVisibility
4:00 AM
Sat, Jul 30
77 °FPassing clouds.5 mph83%29.92 "HgN/A
3:30 AM77 °FPassing clouds.3 mph83%29.92 "HgN/A
3:00 AM77 °FPassing clouds.3 mph83%29.92 "HgN/A
2:30 AM77 °FPassing clouds.3 mph83%29.92 "HgN/A
2:00 AM75 °FPassing clouds.6 mph89%29.89 "HgN/A
1:30 AM77 °FPassing clouds.5 mph83%29.92 "HgN/A
1:00 AM77 °FPassing clouds.5 mph83%29.92 "HgN/A
12:30 AM77 °FPassing clouds.6 mph83%29.92 "HgN/A
12:00 AM77 °FPassing clouds.8 mph89%29.92 "HgN/A
11:30 PM
Fri, Jul 29
77 °FPassing clouds.8 mph89%29.92 "HgN/A
11:00 PM77 °FPassing clouds.9 mph83%29.92 "HgN/A
10:30 PM77 °FPassing clouds.8 mph83%29.92 "HgN/A
10:00 PM77 °FPassing clouds.9 mph89%29.92 "HgN/A
9:30 PM79 °FPassing clouds.10 mph79%29.92 "HgN/A
9:00 PM79 °FPassing clouds.10 mph79%29.92 "HgN/A
8:30 PM79 °FPassing clouds.10 mph79%29.92 "HgN/A
8:00 PM79 °FPassing clouds.10 mph79%29.92 "HgN/A
7:30 PM79 °FPassing clouds.12 mph74%29.89 "HgN/A
7:00 PM79 °FPassing clouds.10 mph74%29.89 "HgN/A
6:30 PM81 °FPassing clouds.13 mph70%29.89 "HgN/A
6:00 PM81 °FPassing clouds.12 mph70%29.89 "HgN/A
5:30 PM82 °FPassing clouds.13 mph70%29.89 "HgN/A
5:00 PM82 °FScattered clouds.13 mph70%29.89 "HgN/A
4:30 PM82 °FPartly sunny.10 mph66%29.89 "HgN/A
4:00 PM84 °FPartly sunny.12 mph66%29.89 "HgN/A
3:30 PM82 °FPartly sunny.12 mph70%29.89 "HgN/A
3:00 PM81 °FPartly sunny.12 mph74%29.89 "HgN/A
2:30 PM81 °FPartly sunny.14 mph79%29.89 "HgN/A
2:00 PM81 °FScattered clouds.13 mph79%29.89 "HgN/A
1:30 PM81 °FScattered clouds.10 mph74%29.89 "HgN/A
1:00 PM81 °FScattered clouds.9 mph74%29.92 "HgN/A
12:30 PM81 °FScattered clouds.9 mph74%29.92 "HgN/A
12:00 PM81 °FPartly sunny.8 mph74%29.92 "HgN/A
11:30 AM81 °FPartly sunny.7 mph74%29.95 "HgN/A
11:00 AM81 °FPartly sunny.7 mph70%29.95 "HgN/A
10:30 AM81 °FPartly sunny.7 mph70%29.95 "HgN/A
10:00 AM82 °FPartly sunny.7 mph66%29.95 "HgN/A
9:30 AM82 °FPartly sunny.6 mph66%29.92 "HgN/A
9:00 AM81 °FPartly sunny.5 mph70%29.92 "HgN/A
8:30 AM81 °FPartly sunny.3 mph70%29.92 "HgN/A
8:00 AM81 °FPartly sunny.3 mph70%29.95 "HgN/A
7:30 AM81 °FPartly sunny.6 mph66%29.92 "HgN/A
7:00 AM79 °FPartly sunny.6 mph70%29.92 "HgN/A
6:30 AM77 °FBroken clouds.5 mph74%29.92 "HgN/A
6:00 AM77 °FBroken clouds.3 mph79%29.92 "HgN/A
5:30 AM75 °FPartly sunny.5 mph83%29.92 "HgN/A
5:00 AM75 °FPartly sunny.5 mph83%29.92 "HgN/A
Weather by CustomWeather, © 2016

See weather overviewHow to use our weather pages